This is the latest recevied weather packets stored in our database for station/object KC7WRB. If no packets are shown the sender has not sent any weather packets the latest 10 day(s).
| Time | Temp. | Humidity | Pressure | Rain* | Wind** | Luminosity | Snow |
|---|---|---|---|---|---|---|---|
| 1788607324 | 8.33° C | 67% | 1017.8 hPa | 0 mm | - | 0 W/m² | - |
| 1788607023 | 8.33° C | 68% | 1018 hPa | 0 mm | - | 0 W/m² | - |
| 1788606723 | 8.33° C | 68% | 1017.9 hPa | 0 mm | - | 0 W/m² | - |
| 1788606422 | 8.33° C | 68% | 1017.8 hPa | 0 mm | - | 0 W/m² | - |
| 1788606117 | 8.89° C | 68% | 1017.9 hPa | 0 mm | - | 0 W/m² | - |
| 1788605813 | 8.89° C | 67% | 1017.9 hPa | 0 mm | - | 0 W/m² | - |
| 1788605511 | 8.89° C | 65% | 1017.7 hPa | 0 mm | - | 0 W/m² | - |
| 1788605207 | 8.89° C | 68% | 1017.7 hPa | 0 mm | - | 0 W/m² | - |
| 1788604902 | 7.78° C | 71% | 1017.7 hPa | 0 mm | - | 0 W/m² | - |
| 1788604597 | 7.78° C | 72% | 1017.8 hPa | 0 mm | - | 0 W/m² | - |
| 1788604293 | 7.78° C | 71% | 1017.9 hPa | 0 mm | - | 0 W/m² | - |
| 1788603989 | 8.33° C | 66% | 1017.7 hPa | 0 mm | - | 0 W/m² | - |
| 1788603685 | 8.89° C | 65% | 1017.8 hPa | 0 mm | - | 0 W/m² | - |
| 1788603383 | 9.44° C | 64% | 1017.6 hPa | 0 mm | - | 0 W/m² | - |
| 1788603082 | 8.89° C | 65% | 1017.7 hPa | 0 mm | - | 0 W/m² | - |
| 1788602778 | 9.44° C | 63% | 1017.8 hPa | 0 mm | - | 0 W/m² | - |
| 1788602473 | 10.56° C | 59% | 1017.6 hPa | 0 mm | - | 0 W/m² | - |
| 1788602167 | 9.44° C | 64% | 1017.5 hPa | 0 mm | - | 0 W/m² | - |
| 1788601862 | 8.89° C | 67% | 1017.5 hPa | 0 mm | - | 0 W/m² | - |
| 1788601557 | 8.89° C | 64% | 1017.7 hPa | 0 mm | - | 0 W/m² | - |
| 1788601257 | 8.89° C | 66% | 1017.6 hPa | 0 mm | - | 0 W/m² | - |
| 1788600956 | 8.89° C | 66% | 1017.7 hPa | 0 mm | - | 0 W/m² | - |
| 1788600653 | 8.89° C | 64% | 1017.8 hPa | 0 mm | - | 0 W/m² | - |
| 1788600353 | 9.44° C | 63% | 1017.6 hPa | 0 mm | - | 0 W/m² | - |
| 1788600049 | 10° C | 61% | 1017.5 hPa | 0 mm | - | 0 W/m² | - |
* Rain latest hour (hover to see other rain measurements)
** Current wind speed in m/s (hover to see current wind gust speed)